Flag for Australia Weather past 2 weeks in Currie, Tasmania, Australia

Now
55 °F

Cool.


Feels Like: 50 °F
Forecast: 49 / 54 °F
Wind: 20 mph from Southwest

Location: King Island Airport

Current Time: Sep 2, 2014 at 2:21:52 PM

Latest Report: Sep 2, 2014 at 1:00 PM


Visibility: N/A

Pressure: 30.14 "Hg

Humidity: 58%

Dew point: 40 °F

Location of CurrieLocation

Historic Weather in Currie — Graph

°F

Currie temperature yesterday

Maximum temperature yesterday: 58 °F (at 12:00 AM)
Minimum temperature yesterday: 49 °F (at 10:00 PM)
Average temperature yesterday: 54 °F

Past Weeks' High & Low Weather Summary

 TemperatureHumidityPressure
High66 °F (Aug 31, 2:00 PM)100% (Aug 26, 1:00 AM)30.44 "Hg (Aug 26, 1:00 AM)
Low42 °F (Aug 29, 5:00 AM)54% (Aug 22, 1:00 PM)29.68 "Hg (Sep 1, 6:00 AM)
Average52 °F85%30.25 "Hg
* Reported Aug 18 12:00 Noon — Sep 2 12:00 Noon, Currie, Weather by CustomWeather, © 2014

Note: Actual official high and low records may vary slightly from our data, if they occured in-between our weather recording intervals... More about our weather records

Advertising

Currie weather history for previous 24 hours

 ConditionsComfort  
Time TempWeatherWind HumidityBarometerVisibility
12:00 PM
Sep 2
54 °FScattered clouds.20 mph61%30.14 "HgN/A
11:00 AM54 °FCool.20 mph58%30.14 "HgN/A
10:00 AM54 °FCool.16 mph62%30.13 "HgN/A
9:00 AM51 °FRain showers. Partly sunny.10 mph75%30.11 "HgN/A
8:00 AM49 °FCool.8 mph88%30.09 "HgN/A
7:00 AM48 °FCool.12 mph86%30.06 "HgN/A
6:00 AM47 °FPassing clouds.9 mph83%30.03 "HgN/A
5:00 AM46 °FCool.7 mph85%30.00 "HgN/A
4:00 AM50 °FCool.12 mph78%29.97 "HgN/A
3:00 AM50 °FOvercast.17 mph80%29.96 "HgN/A
2:00 AM50 °FCool.12 mph75%29.95 "HgN/A
1:00 AM47 °FCool.7 mph82%29.94 "HgN/A
12:00 AM50 °FOvercast.16 mph80%29.93 "HgN/A
11:00 PM
Sep 1
49 °FCool.7 mph86%29.92 "HgN/A
10:00 PM49 °FCool.7 mph86%29.90 "HgN/A
9:00 PM51 °FPassing clouds.13 mph77%29.88 "HgN/A
8:00 PM51 °FCool.12 mph76%29.86 "HgN/A
7:00 PM52 °FCool.10 mph75%29.84 "HgN/A
6:00 PM52 °FOvercast.12 mph73%29.82 "HgN/A
5:00 PM54 °FCool.15 mph76%29.79 "HgN/A
4:00 PM55 °FCool.18 mph74%29.78 "HgN/A
3:00 PM54 °FOvercast.17 mph79%29.76 "HgN/A
2:00 PM55 °FCool.20 mph79%29.74 "HgN/A
Weather by CustomWeather, © 2014

See weather overviewHow to use our weather pages